TimeCDT,TemperatureF,Dew PointF,Humidity,Sea Level PressureIn,VisibilityMPH,Wind Direction,Wind SpeedMPH,Gust SpeedMPH,PrecipitationIn,Events,Conditions,WindDirDegrees,DateUTC
12:53 AM,30.9,14.0,50,30.18,10.0,NNW,8.1,-,N/A,,Scattered Clouds,330,2013-04-02 05:53:00
1:53 AM,30.0,14.0,51,30.19,10.0,NW,5.8,-,N/A,,Clear,320,2013-04-02 06:53:00
2:53 AM,28.9,15.1,56,30.20,10.0,NW,4.6,-,N/A,,Clear,310,2013-04-02 07:53:00
3:53 AM,28.0,15.1,58,30.20,10.0,NW,5.8,-,N/A,,Clear,320,2013-04-02 08:53:00
4:53 AM,28.0,15.1,58,30.22,10.0,NW,3.5,-,N/A,,Clear,310,2013-04-02 09:53:00
5:53 AM,24.1,15.1,69,30.24,10.0,WNW,4.6,-,N/A,,Clear,290,2013-04-02 10:53:00
6:53 AM,24.1,14.0,65,30.26,10.0,West,5.8,-,N/A,,Clear,260,2013-04-02 11:53:00
7:53 AM,28.9,16.0,58,30.28,10.0,West,9.2,-,N/A,,Clear,280,2013-04-02 12:53:00
8:53 AM,32.0,17.1,54,30.29,10.0,WNW,6.9,-,N/A,,Clear,300,2013-04-02 13:53:00
9:53 AM,35.1,16.0,46,30.30,10.0,West,5.8,16.1,N/A,,Clear,270,2013-04-02 14:53:00
10:53 AM,37.0,10.9,34,30.29,10.0,NW,10.4,20.7,N/A,,Clear,310,2013-04-02 15:53:00
11:53 AM,39.9,10.0,29,30.28,10.0,West,8.1,-,N/A,,Clear,270,2013-04-02 16:53:00
12:53 PM,41.0,9.0,27,30.26,10.0,Variable,5.8,17.3,N/A,,Clear,0,2013-04-02 17:53:00
1:53 PM,43.0,10.0,26,30.24,10.0,NW,8.1,-,N/A,,Clear,310,2013-04-02 18:53:00
2:53 PM,44.1,10.9,26,30.22,10.0,Variable,3.5,-,N/A,,Clear,0,2013-04-02 19:53:00
3:53 PM,44.1,10.0,25,30.22,10.0,NNW,13.8,17.3,N/A,,Clear,330,2013-04-02 20:53:00
4:53 PM,43.0,9.0,25,30.24,10.0,NNW,9.2,-,N/A,,Clear,340,2013-04-02 21:53:00
5:53 PM,39.9,10.0,29,30.26,10.0,North,6.9,-,N/A,,Partly Cloudy,360,2013-04-02 22:53:00
6:53 PM,37.0,10.0,33,30.27,10.0,North,5.8,-,N/A,,Clear,360,2013-04-02 23:53:00
7:53 PM,34.0,10.9,38,30.28,10.0,Calm,Calm,-,N/A,,Clear,0,2013-04-03 00:53:00
8:53 PM,33.1,10.0,38,30.30,10.0,Calm,Calm,-,N/A,,Clear,0,2013-04-03 01:53:00
9:53 PM,30.0,12.0,47,30.31,10.0,NE,3.5,-,N/A,,Clear,40,2013-04-03 02:53:00
10:53 PM,28.9,10.9,47,30.32,10.0,Calm,Calm,-,N/A,,Clear,0,2013-04-03 03:53:00
11:53 PM,27.0,12.9,56,30.32,10.0,Calm,Calm,-,N/A,,Clear,0,2013-04-03 04:53:00